• în România
  • Lista ţărilor
  • Pe 7 zile
  • Temperatura apei
  • Hartă satelitară
  • Meteo pe hartă
  • Widget-uri
  • user-avatar
    Intrare

    Meteo pe oră la Hrodna

    Astăzi, 24 Septembrie, Luni

    Timp Temperatura Precipitaţii Vânt Presiune Umiditate
    00:00 +9°C° 1.2 mm 2 m/s 744 mmHg 91%
    01:00 +9°C° 1.2 mm 2 m/s 743 mmHg 93%
    02:00 +9°C° 0 mm 2 m/s 741 mmHg 96%
    03:00 +9°C° 2.4 mm 3 m/s 740 mmHg 95%
    04:00 +8°C° 2.4 mm 4 m/s 740 mmHg 95%
    05:00 +8°C° 2.4 mm 5 m/s 739 mmHg 94%
    06:00 +7°C° 1.3 mm 5 m/s 740 mmHg 93%
    07:00 +7°C° 1.3 mm 6 m/s 740 mmHg 92%
    08:00 +7°C° 1.3 mm 6 m/s 740 mmHg 91%
    09:00 +8°C° 0.2 mm 6 m/s 741 mmHg 87%
    10:00 +9°C° 0.2 mm 6 m/s 742 mmHg 83%
    11:00 +10°C° 0.2 mm 6 m/s 743 mmHg 78%
    12:00 +11°C° 0.4 mm 6 m/s 743 mmHg 74%
    13:00 +11°C° 0.4 mm 6 m/s 744 mmHg 70%
    14:00 +12°C° 0.4 mm 7 m/s 744 mmHg 66%
    15:00 +11°C° 0.4 mm 6 m/s 745 mmHg 69%
    16:00 +11°C° 0.4 mm 6 m/s 745 mmHg 72%
    17:00 +10°C° 0.4 mm 5 m/s 746 mmHg 75%
    18:00 +9°C° 0.4 mm 6 m/s 746 mmHg 77%
    19:00 +8°C° 0.4 mm 6 m/s 747 mmHg 80%
    20:00 +8°C° 0.4 mm 6 m/s 748 mmHg 82%
    21:00 +7°C° 0.1 mm 6 m/s 749 mmHg 84%
    22:00 +6°C° 0.1 mm 5 m/s 749 mmHg 85%
    23:00 +6°C° 0.1 mm 5 m/s 750 mmHg 86%

    Mâine, 25 Septembrie, Marţi

    Timp Temperatura Precipitaţii Vânt Presiune Umiditate
    00:00 +5°C° 0 mm 5 m/s 751 mmHg 87%
    01:00 +5°C° 0 mm 5 m/s 751 mmHg 87%
    02:00 +3°C° 0 mm 5 m/s 752 mmHg 87%
    03:00 +3°C° 0 mm 5 m/s 753 mmHg 86%
    04:00 +3°C° 0 mm 5 m/s 753 mmHg 86%
    05:00 +3°C° 0 mm 5 m/s 754 mmHg 85%
    06:00 +3°C° 0 mm 5 m/s 754 mmHg 82%
    07:00 +5°C° 0 mm 5 m/s 755 mmHg 79%
    08:00 +5°C° 0 mm 6 m/s 756 mmHg 76%
    09:00 +7°C° 0.1 mm 6 m/s 756 mmHg 70%
    10:00 +8°C° 0.1 mm 7 m/s 756 mmHg 65%
    11:00 +9°C° 0.1 mm 7 m/s 757 mmHg 59%
    12:00 +9°C° 0.2 mm 7 m/s 757 mmHg 58%
    13:00 +9°C° 0.2 mm 7 m/s 758 mmHg 58%
    14:00 +10°C° 0.2 mm 7 m/s 758 mmHg 57%
    15:00 +9°C° 0.1 mm 6 m/s 758 mmHg 60%
    16:00 +9°C° 0.1 mm 6 m/s 759 mmHg 62%
    17:00 +8°C° 0.1 mm 6 m/s 759 mmHg 65%
    18:00 +7°C° 0 mm 5 m/s 760 mmHg 69%
    19:00 +6°C° 0 mm 4 m/s 761 mmHg 73%
    20:00 +5°C° 0 mm 4 m/s 761 mmHg 77%
    21:00 +5°C° 0 mm 4 m/s 762 mmHg 79%
    22:00 +4°C° 0 mm 3 m/s 763 mmHg 81%
    23:00 +4°C° 0 mm 3 m/s 763 mmHg 83%

    Poimâine, 26 Septembrie, Miercuri

    Timp Temperatura Precipitaţii Vânt Presiune Umiditate
    00:00 +3°C° 0 mm 3 m/s 763 mmHg 84%
    01:00 +3°C° 0 mm 3 m/s 764 mmHg 85%
    02:00 +3°C° 0 mm 3 m/s 764 mmHg 87%
    03:00 +2°C° 0 mm 3 m/s 764 mmHg 86%
    04:00 +2°C° 0 mm 3 m/s 764 mmHg 86%
    05:00 +2°C° 0 mm 3 m/s 764 mmHg 86%
    06:00 +3°C° 0 mm 3 m/s 764 mmHg 80%
    07:00 +4°C° 0 mm 4 m/s 764 mmHg 74%
    08:00 +5°C° 0 mm 4 m/s 764 mmHg 69%
    09:00 +7°C° 0 mm 5 m/s 763 mmHg 64%
    10:00 +8°C° 0 mm 6 m/s 763 mmHg 59%
    11:00 +10°C° 0 mm 6 m/s 763 mmHg 54%
    12:00 +10°C° 0 mm 7 m/s 762 mmHg 53%
    13:00 +11°C° 0 mm 7 m/s 761 mmHg 52%
    14:00 +11°C° 0 mm 7 m/s 761 mmHg 51%
    15:00 +10°C° 0.1 mm 7 m/s 760 mmHg 56%
    16:00 +10°C° 0.1 mm 6 m/s 759 mmHg 61%
    17:00 +9°C° 0.1 mm 6 m/s 759 mmHg 66%
    18:00 +8°C° 0.1 mm 6 m/s 758 mmHg 67%
    19:00 +8°C° 0.1 mm 7 m/s 758 mmHg 69%
    20:00 +8°C° 0.1 mm 7 m/s 757 mmHg 70%
    21:00 +7°C° 0.3 mm 8 m/s 757 mmHg 75%
    22:00 +6°C° 0.3 mm 8 m/s 756 mmHg 79%
    23:00 +6°C° 0.3 mm 8 m/s 755 mmHg 84%

    27 Septembrie, Joi

    Timp Temperatura Precipitaţii Vânt Presiune Umiditate
    00:00 +7°C° 0.3 mm 8 m/s 755 mmHg 84%
    01:00 +7°C° 0.3 mm 8 m/s 754 mmHg 83%
    02:00 +7°C° 0.3 mm 8 m/s 754 mmHg 83%
    03:00 +9°C° 0.2 mm 7 m/s 753 mmHg 83%
    04:00 +9°C° 0.2 mm 7 m/s 753 mmHg 83%
    05:00 +9°C° 0.2 mm 7 m/s 752 mmHg 83%
    06:00 +10°C° 0.2 mm 8 m/s 752 mmHg 85%
    07:00 +10°C° 0.2 mm 8 m/s 752 mmHg 86%
    08:00 +11°C° 0.2 mm 8 m/s 752 mmHg 87%
    09:00 +11°C° 0.2 mm 8 m/s 752 mmHg 87%
    10:00 +12°C° 0.2 mm 8 m/s 752 mmHg 87%
    11:00 +13°C° 0.2 mm 8 m/s 752 mmHg 88%
    12:00 +13°C° 0.3 mm 8 m/s 752 mmHg 88%
    13:00 +15°C° 0.3 mm 8 m/s 752 mmHg 87%
    14:00 +15°C° 0.3 mm 8 m/s 752 mmHg 87%
    15:00 +15°C° 0.3 mm 7 m/s 752 mmHg 87%
    16:00 +15°C° 0.3 mm 7 m/s 753 mmHg 88%
    17:00 +15°C° 0.3 mm 7 m/s 753 mmHg 88%
    18:00 +15°C° 0.1 mm 6 m/s 753 mmHg 88%
    19:00 +14°C° 0.1 mm 6 m/s 753 mmHg 89%
    20:00 +14°C° 0.1 mm 6 m/s 753 mmHg 89%
    21:00 +14°C° 0.1 mm 5 m/s 753 mmHg 90%
    22:00 +14°C° 0.1 mm 5 m/s 753 mmHg 91%
    23:00 +13°C° 0.1 mm 5 m/s 753 mmHg 92%

    28 Septembrie, Vineri

    Timp Temperatura Precipitaţii Vânt Presiune Umiditate
    00:00 +13°C° 0 mm 5 m/s 753 mmHg 92%
    01:00 +13°C° 0 mm 5 m/s 753 mmHg 93%
    02:00 +13°C° 0 mm 5 m/s 753 mmHg 93%
    03:00 +13°C° 0 mm 6 m/s 752 mmHg 93%
    04:00 +13°C° 0 mm 6 m/s 751 mmHg 93%
    05:00 +11°C° 0 mm 6 m/s 751 mmHg 93%
    06:00 +12°C° 0 mm 7 m/s 750 mmHg 91%
    07:00 +12°C° 0 mm 7 m/s 750 mmHg 90%
    08:00 +14°C° 0 mm 7 m/s 749 mmHg 88%
    09:00 +15°C° 0 mm 7 m/s 749 mmHg 84%
    10:00 +15°C° 0 mm 7 m/s 749 mmHg 80%
    11:00 +16°C° 0 mm 7 m/s 748 mmHg 76%
    12:00 +17°C° 0 mm 8 m/s 748 mmHg 72%
    13:00 +17°C° 0 mm 8 m/s 748 mmHg 68%
    14:00 +17°C° 0 mm 8 m/s 748 mmHg 64%
    15:00 +16°C° 0.1 mm 7 m/s 748 mmHg 66%
    16:00 +15°C° 0.1 mm 6 m/s 748 mmHg 68%
    17:00 +14°C° 0.1 mm 5 m/s 748 mmHg 70%
    18:00 +13°C° 0 mm 5 m/s 749 mmHg 73%
    19:00 +12°C° 0 mm 4 m/s 749 mmHg 76%
    20:00 +11°C° 0 mm 3 m/s 750 mmHg 79%
    21:00 +10°C° 0 mm 3 m/s 750 mmHg 79%
    22:00 +9°C° 0 mm 3 m/s 751 mmHg 79%
    23:00 +9°C° 0 mm 3 m/s 751 mmHg 79%

    29 Septembrie, Sâmbătă

    Timp Temperatura Precipitaţii Vânt Presiune Umiditate
    00:00 +8°C° 0 mm 3 m/s 752 mmHg 79%
    01:00 +8°C° 0 mm 2 m/s 752 mmHg 80%
    02:00 +7°C° 0 mm 2 m/s 752 mmHg 80%
    03:00 +7°C° 0 mm 2 m/s 753 mmHg 83%
    04:00 +6°C° 0 mm 2 m/s 753 mmHg 85%
    05:00 +5°C° 0 mm 3 m/s 754 mmHg 88%
    06:00 +5°C° 0 mm 3 m/s 755 mmHg 85%
    07:00 +5°C° 0 mm 4 m/s 755 mmHg 83%
    08:00 +5°C° 0 mm 4 m/s 756 mmHg 80%
    09:00 +7°C° 0 mm 5 m/s 757 mmHg 70%
    10:00 +8°C° 0 mm 5 m/s 757 mmHg 61%
    11:00 +9°C° 0 mm 5 m/s 758 mmHg 52%
    12:00 +9°C° 0 mm 5 m/s 758 mmHg 49%
    13:00 +10°C° 0 mm 5 m/s 758 mmHg 47%
    14:00 +10°C° 0 mm 5 m/s 759 mmHg 44%
    15:00 +11°C° 0 mm 4 m/s 759 mmHg 48%
    16:00 +11°C° 0 mm 4 m/s 759 mmHg 51%
    17:00 +10°C° 0 mm 3 m/s 759 mmHg 55%
    18:00 +9°C° 0 mm 2 m/s 760 mmHg 59%
    19:00 +7°C° 0 mm 2 m/s 761 mmHg 64%
    20:00 +6°C° 0 mm 2 m/s 761 mmHg 68%
    21:00 +6°C° 0 mm 1 m/s 761 mmHg 70%
    22:00 +6°C° 0 mm 1 m/s 762 mmHg 72%
    23:00 +6°C° 0 mm 1 m/s 762 mmHg 74%
    Arată mai mult